Location: Bo?a Wola
(50.4192°N, 19.7966°E)
Time: 21:54:17
(UTC+00:00)

Cosmos 1455 Rocket - Pass Details

Date: 21 September 2024
Orbit: 601 x 623 km, 82.5° (Epoch: 13 October)

Event Time Altitude Azimuth Distance (km) Brightness Sun altitude
Exits shadow 23:46:33 15° 23° (NNE) 1,656 5.9 -37.0°
Drops below altitude 10° 23:47:22 10° 20° (NNE) 1,973 6.4 -37.0°
Sets 23:49:39 0° 15° (NNE) 2,886 7.4 -36.8°
